Theta_e
329 329 328 324 308 306 301 301 306 304 304 309 311 310 308 309 307 304 317 320 324 323 326 328 331 334 336 338 339 339 339 340 341 341 341 341 341 341 341 341 341 342 344 345 345 345 346 346 346
326 323 324 319 304 300 301 305 302 305 308 309 309 308 307 307 312 312 313 317 320 321 323 323 327 330 332 334 333 334 334 336 336 336 336 337 336 335 335 336 336 336 339 341 343 344 343 343 343
323 322 317 310 304 299 301 304 306 307 308 308 307 309 309 309 311 315 313 316 318 318 320 320 324 325 328 329 328 328 329 329 330 332 331 328 327 328 330 330 330 331 332 333 335 336 338 338 339
320 317 313 303 301 304 303 306 307 306 307 307 308 305 307 311 312 314 311 315 315 315 317 318 321 322 323 323 323 322 323 323 324 326 322 321 320 320 321 322 323 324 326 328 329 332 333 332 334
318 315 305 302 302 304 306 307 307 305 306 306 307 305 306 308 311 310 308 310 311 311 313 315 317 318 319 320 319 319 319 318 319 319 317 316 316 316 317 317 318 319 320 321 324 327 326 326 326
311 311 301 299 302 304 306 307 307 307 307 306 305 306 307 310 308 308 307 306 307 309 310 311 313 314 315 315 316 316 316 315 314 313 313 312 312 313 313 314 315 316 316 317 319 319 318 318 319
309 307 302 303 302 302 305 308 306 307 307 306 308 304 307 306 309 308 306 306 305 305 306 306 309 309 311 311 312 312 312 311 310 309 308 308 307 308 308 308 311 312 313 313 314 314 315 315 314
310 308 303 303 301 302 306 306 307 307 306 308 309 304 306 308 308 306 305 304 304 303 303 304 304 305 307 307 307 308 307 307 306 304 303 302 305 304 304 304 307 309 309 310 311 311 312 311 311
312 303 302 302 301 303 306 304 306 306 306 306 307 307 306 310 306 304 303 303 302 301 302 303 303 303 304 304 303 303 303 302 302 303 301 306 302 302 302 302 303 305 306 307 308 309 309 308 311
308 304 303 306 305 304 305 305 306 302 303 305 305 308 304 306 303 302 301 301 301 300 301 302 302 302 302 299 303 303 302 302 303 303 302 302 302 300 301 303 302 303 302 304 305 306 306 307 305
307 303 305 306 306 305 305 304 307 303 303 306 306 308 304 304 302 302 303 303 302 302 301 301 301 302 302 301 302 302 303 302 302 302 301 302 301 301 301 301 301 301 302 300 300 301 301 302 303
303 307 306 306 305 304 303 306 303 304 306 309 310 311 307 304 303 302 303 304 303 302 301 300 301 301 302 302 302 302 301 301 301 300 300 300 300 299 299 299 299 300 299 299 299 299 300 300 301
303 306 305 306 305 304 305 303 304 305 309 310 308 306 307 304 305 305 305 306 305 301 300 299 300 300 300 301 301 301 300 300 300 299 298 298 298 297 297 297 297 297 296 296 296 297 297 298 298
305 304 304 306 305 304 301 303 302 306 309 308 308 304 305 305 305 305 305 304 304 302 300 299 299 300 300 299 300 300 299 299 299 298 297 297 297 296 295 296 295 295 295 295 295 294 294 295 297
304 300 304 304 304 302 303 299 301 306 306 305 306 306 305 305 306 305 305 304 304 302 300 299 298 299 298 299 299 299 299 297 297 297 296 295 295 294 294 294 294 294 294 294 294 294 294 294 294
301 301 297 304 303 302 301 296 304 308 306 303 305 306 305 305 305 306 306 305 304 302 300 299 297 297 298 298 298 298 297 297 297 296 295 294 293 293 293 293 293 293 292 292 292 292 292 292 292
301 296 298 301 303 301 300 298 304 306 304 303 305 306 306 305 305 306 306 305 304 301 299 298 297 296 297 298 297 297 297 296 296 295 295 294 292 292 291 291 291 292 291 291 291 291 291 290 291
296 297 298 298 301 300 298 297 302 305 304 303 303 304 306 307 305 305 305 305 303 301 300 298 296 296 297 297 297 296 295 295 295 294 294 292 291 291 291 291 290 291 290 290 290 289 290 289 290
300 297 296 299 302 298 298 298 300 303 303 303 304 304 305 306 309 306 305 305 302 301 298 296 295 296 296 296 294 294 293 294 294 294 292 291 290 290 290 289 289 289 289 289 289 288 288 289 289
299 296 296 299 301 296 297 296 300 301 302 303 303 303 304 306 307 305 304 303 300 299 297 296 296 296 295 296 296 295 295 295 294 294 292 291 290 289 288 288 288 288 288 288 288 288 286 287 288
296 295 296 295 299 296 294 293 296 300 301 302 302 304 304 304 306 304 302 301 300 298 297 296 296 296 295 296 295 293 292 291 290 291 291 290 289 289 288 288 287 287 287 286 287 287 286 284 286
293 299 298 296 294 290 295 287 296 298 299 299 301 301 303 303 304 303 301 300 299 298 298 296 296 295 296 295 293 291 289 289 290 292 291 289 289 288 288 287 286 286 287 286 286 286 285 285 283
295 294 295 295 293 292 292 289 293 295 294 295 298 300 304 306 303 301 300 300 299 298 297 296 295 295 295 295 292 291 290 291 292 290 288 288 288 288 287 287 286 285 286 286 285 285 285 285 283
295 293 292 292 291 285 291 291 291 294 294 298 300 302 304 302 302 302 301 299 298 298 296 295 294 293 295 293 292 291 290 290 289 288 287 287 287 287 287 286 285 285 284 284 284 284 284 283 283
293 292 288 288 287 285 294 290 293 297 297 298 299 301 302 301 301 300 299 296 296 296 295 294 293 292 293 292 291 291 291 290 289 288 287 286 286 285 285 285 284 283 284 283 283 283 283 283 282
291 293 289 284 284 287 291 287 292 299 300 300 301 301 300 299 300 299 299 297 295 295 294 293 293 292 292 291 291 290 290 288 288 288 287 285 284 284 285 283 283 282 282 282 282 281 282 282 282
291 287 295 290 288 285 289 293 298 298 297 298 297 297 298 298 299 298 298 297 296 294 293 292 292 292 291 290 290 289 288 287 286 286 285 284 284 282 282 281 281 281 281 281 281 280 280 281 281
291 293 288 289 283 281 286 289 291 294 294 296 295 296 298 300 300 299 298 296 296 295 294 293 293 291 290 290 289 288 286 286 285 285 283 282 282 281 280 280 280 280 280 280 279 279 280 279 280
286 287 287 288 289 284 282 287 295 294 296 296 297 296 298 301 301 299 298 296 296 295 294 292 292 291 290 289 288 287 285 284 284 282 281 281 281 280 279 278 278 278 278 278 277 277 277 277 277
293 292 291 286 284 286 286 286 296 297 297 297 297 298 300 300 300 300 299 297 295 294 293 292 291 290 290 289 287 285 284 282 280 280 280 280 279 278 278 277 277 277 276 276 276 275 276 275 275
Wind_Speed
5 6 4 4 6 6 4 5 2 7 6 4 2 5 6 4 2 3 5 5 6 7 6 10 10 9 10 12 13 14 13 11 12 12 13 12 12 12 13 13 14 13 12 11 10 10 11 10 9
4 3 5 4 7 8 4 6 7 8 6 7 5 3 4 3 5 8 9 6 6 6 8 9 8 10 10 11 12 12 12 13 14 14 12 13 14 15 14 14 15 15 15 15 16 16 15 14 12
6 6 5 5 6 8 5 6 7 9 8 9 6 4 3 2 4 11 8 9 8 7 7 8 9 10 11 11 12 12 13 14 14 13 15 14 13 14 14 15 15 15 15 15 14 14 15 16 14
4 5 5 7 11 3 5 5 6 11 5 3 2 5 3 5 6 6 10 9 9 7 9 9 9 10 11 11 12 13 13 13 13 14 13 13 13 13 13 13 13 14 14 15 15 16 15 14 15
5 5 8 8 9 3 2 1 7 11 8 8 7 1 1 6 6 11 11 9 9 8 9 9 9 9 10 11 11 12 13 13 12 12 12 12 13 13 13 14 14 15 15 15 14 15 16 17 17
5 4 7 9 4 1 3 4 8 10 7 7 7 6 1 10 12 12 11 10 9 9 8 8 9 9 10 10 10 11 12 12 12 12 12 13 13 13 14 15 15 15 15 15 14 14 14 15 16
8 6 10 8 9 5 6 7 11 10 10 10 1 6 4 11 13 12 11 9 8 8 7 7 7 9 10 10 10 11 11 12 12 12 11 11 12 12 13 12 13 13 14 14 14 15 15 15 15
5 4 8 5 5 6 5 8 3 10 11 4 6 7 8 14 15 13 11 10 9 8 7 7 7 5 7 8 9 10 11 11 11 10 7 3 8 8 10 12 13 13 14 13 15 14 15 15 13
2 6 7 5 4 1 5 10 4 5 7 5 8 7 6 14 17 14 12 12 10 9 9 8 8 7 7 7 8 9 8 7 5 6 3 2 5 7 8 11 12 14 16 14 16 16 17 16 11
6 6 5 1 3 4 5 10 8 6 12 15 13 11 5 18 17 18 17 15 15 13 12 9 9 8 7 5 6 4 4 4 3 4 5 4 6 6 6 6 9 11 13 12 15 14 14 12 9
4 6 2 5 6 5 7 8 8 9 16 13 16 16 15 19 18 19 19 17 17 15 11 12 10 9 9 6 5 3 2 2 3 5 4 4 4 5 5 4 5 6 9 7 10 10 8 11 8
6 10 7 1 3 4 9 5 8 17 19 3 8 10 19 21 20 21 20 19 17 17 15 13 12 10 9 6 5 4 3 3 2 3 4 3 3 4 4 4 6 6 6 8 7 5 8 10 11
10 9 6 7 6 9 6 12 12 17 18 17 8 5 16 18 21 20 19 18 17 18 16 15 13 11 9 8 5 5 4 3 3 3 4 3 3 4 4 5 5 5 6 7 8 7 8 9 10
6 9 12 8 11 9 9 13 3 12 13 19 17 15 16 19 21 19 20 20 19 17 17 15 15 13 11 9 9 6 5 5 4 3 3 4 3 3 3 4 4 5 6 7 7 7 8 7 8
5 9 13 15 12 7 7 11 19 20 7 11 14 16 17 19 19 23 21 20 20 16 17 17 16 14 12 11 9 7 6 5 4 3 3 3 3 3 3 3 4 5 6 7 7 7 7 7 7
6 5 11 3 10 5 8 17 12 9 10 14 17 16 17 20 23 21 21 21 20 18 19 17 13 14 13 11 9 6 6 5 4 3 3 3 2 3 3 4 5 5 6 6 6 7 7 7 8
10 13 15 13 14 4 13 15 4 2 8 15 17 17 18 19 20 20 21 20 20 20 19 17 16 16 14 11 9 8 7 5 4 4 3 4 3 3 3 3 3 5 5 6 6 7 8 8 8
16 15 16 18 10 13 14 22 21 18 17 20 22 22 20 20 21 18 20 19 19 19 18 18 15 15 13 8 7 6 6 5 5 4 3 4 2 1 2 2 4 4 5 6 6 8 7 9 9
22 21 22 25 8 11 19 22 24 22 20 22 22 21 21 20 17 16 18 18 18 18 18 18 17 16 12 8 8 6 7 6 6 5 5 5 3 1 2 3 4 5 6 7 8 8 9 8 9
19 21 26 22 8 8 17 22 21 21 24 24 23 22 18 16 15 15 17 18 18 18 18 19 18 17 14 9 8 5 7 6 6 5 5 5 4 4 4 5 6 6 6 8 8 7 7 7 5
19 21 23 21 12 13 13 17 16 14 17 18 20 20 17 16 13 14 16 20 18 20 20 18 18 17 16 13 9 6 4 3 5 6 5 6 5 5 6 8 6 6 6 7 7 7 8 7 7
21 17 19 20 11 13 3 15 14 14 17 13 19 18 14 11 8 13 17 19 21 19 18 19 19 18 16 16 13 14 9 7 6 5 5 5 6 7 8 7 6 6 6 8 7 5 7 7 8
13 2 6 10 14 18 14 18 15 8 10 12 18 18 15 6 12 15 17 17 18 18 18 18 19 18 16 16 14 12 10 7 5 5 6 7 7 8 7 6 6 6 6 8 8 8 8 7 7
5 3 4 5 8 14 18 20 6 8 7 9 12 15 6 6 11 13 14 15 16 16 17 18 19 19 17 17 16 15 13 10 7 7 6 6 6 4 5 6 6 6 8 9 8 8 10 9 9
9 7 6 9 9 19 13 15 15 9 11 14 20 19 6 9 11 13 15 15 15 18 17 16 20 21 20 19 17 16 14 13 11 10 8 7 5 5 6 6 6 6 8 8 9 10 10 10 9
16 13 7 14 16 26 2 15 10 14 16 15 16 7 5 9 11 13 15 15 16 15 17 19 20 19 20 19 17 15 14 9 9 10 7 6 6 5 6 5 6 8 10 9 10 8 8 10 8
9 10 3 9 3 10 13 22 15 7 12 14 7 5 10 12 13 13 13 14 15 18 21 22 20 19 20 20 17 17 14 13 11 11 9 7 7 5 5 6 8 10 10 10 11 8 10 10 10
6 2 6 5 8 18 30 22 17 15 18 11 6 10 12 9 11 11 13 15 15 16 17 19 20 20 19 18 16 15 15 13 10 9 10 9 7 7 7 9 9 10 10 10 10 9 11 11 9
8 8 7 5 9 12 22 10 9 11 8 7 9 8 9 6 8 11 13 12 14 14 15 15 17 19 19 18 17 16 14 13 11 9 9 8 7 7 8 8 9 10 10 10 11 12 13 13 13
12 20 21 13 17 9 15 35 3 6 2 7 6 6 5 7 10 12 13 14 14 15 15 17 17 19 19 18 17 16 14 12 11 10 9 7 8 8 8 8 9 10 10 10 11 12 12 13 14
Wind_Direction
208 234 272 243 243 235 224 190 119 163 166 110 231 174 263 4 302 7 122 110 111 89 71 72 44 54 54 55 55 54 53 55 57 57 52 50 46 40 35 29 26 21 17 15 10 8 8 14 10
226 246 237 277 254 248 132 144 185 170 92 149 154 212 246 221 91 121 151 131 101 86 72 62 55 65 68 69 64 60 58 57 56 52 49 47 44 37 34 28 29 23 19 15 12 12 10 6 0
259 261 263 241 261 274 359 168 163 112 140 171 174 265 335 63 115 143 102 134 124 101 95 84 72 75 79 80 75 70 65 62 59 61 58 53 49 45 42 38 31 25 20 14 7 1 7 7 359
240 200 233 249 258 287 314 177 139 145 152 200 252 204 134 39 147 129 138 147 127 124 110 92 84 84 85 84 82 78 75 75 73 73 63 58 51 47 40 36 30 22 18 11 7 6 5 357 356
228 259 253 246 271 281 231 226 164 177 161 174 192 189 187 156 114 133 148 148 147 132 116 101 90 89 88 86 85 81 77 73 73 71 68 62 52 46 38 33 28 23 18 11 9 11 3 357 357
239 274 252 258 266 184 230 195 191 194 175 128 200 245 202 135 163 161 158 153 151 138 129 120 95 91 90 87 88 85 82 80 76 71 66 62 57 51 44 35 29 25 18 11 10 4 358 352 350
261 263 276 297 277 241 220 186 204 210 198 202 20 226 91 170 175 163 164 155 152 146 150 141 128 108 87 80 84 85 82 76 70 64 64 64 55 51 44 42 29 26 17 13 6 0 354 348 344
273 267 275 251 282 268 157 186 257 224 236 90 180 229 228 179 167 170 167 169 168 164 160 155 153 150 127 109 90 90 88 84 76 71 67 63 85 54 56 32 26 24 15 11 4 358 351 347 334
246 251 264 277 259 353 140 208 177 0 240 205 198 266 66 148 159 174 181 185 182 184 179 173 169 156 138 127 118 117 109 106 113 119 68 129 59 39 40 40 19 16 11 6 1 359 352 347 345
241 254 282 337 272 260 191 230 195 215 214 227 232 220 158 155 175 186 192 194 195 191 188 181 175 168 160 151 151 136 134 96 89 65 51 41 43 42 17 40 21 14 10 4 358 358 350 355 347
191 253 6 243 242 249 245 224 215 229 245 223 232 222 184 182 190 200 203 203 199 193 189 186 180 173 172 159 170 171 162 153 105 67 45 47 45 27 28 18 14 3 15 6 358 355 360 347 342
257 244 249 299 228 239 238 261 226 227 239 15 263 255 174 198 203 207 208 206 199 196 190 187 180 179 178 169 189 171 166 162 137 88 49 55 47 36 24 22 11 5 4 356 352 348 344 342 334
250 276 249 243 220 239 257 242 249 256 243 255 213 226 195 205 213 213 213 210 202 199 193 189 182 181 176 186 178 177 159 178 138 132 77 45 56 35 23 18 8 1 356 354 346 341 339 336 334
356 287 269 253 244 234 232 255 222 253 247 241 229 225 223 213 214 212 211 210 205 197 196 187 188 185 178 187 183 176 175 161 172 137 100 72 47 39 25 13 1 357 355 347 331 332 330 326 319
279 283 275 244 237 241 208 253 235 251 224 235 235 228 227 223 216 216 210 211 203 198 193 192 187 183 182 185 183 179 177 179 167 151 149 114 71 49 12 10 355 3 343 325 325 326 323 313 312
258 250 270 116 180 183 200 264 251 240 200 232 243 234 231 227 221 217 213 207 202 196 195 188 188 184 184 184 182 182 174 185 171 174 172 147 94 39 12 4 360 356 323 322 322 321 321 317 316
205 266 267 252 191 155 210 269 281 162 235 257 255 250 234 231 228 223 215 205 201 197 193 188 188 187 185 184 182 180 176 192 182 191 194 135 71 37 5 0 334 321 312 310 311 318 317 314 311
275 275 271 269 190 216 230 252 272 270 268 266 263 264 259 242 227 220 220 209 199 195 192 189 187 188 182 175 182 183 180 191 189 204 183 150 144 56 343 314 307 304 305 302 306 298 304 304 312
276 282 277 273 267 214 243 256 265 273 274 273 270 269 257 254 249 204 209 206 194 193 192 191 188 188 180 178 182 188 196 192 198 193 179 178 152 188 263 279 282 279 274 283 291 297 309 315 324
261 264 268 275 291 207 266 267 268 269 265 270 272 270 269 266 229 199 202 199 193 191 193 193 194 190 189 183 187 191 191 197 194 176 179 182 186 205 240 254 255 258 278 281 284 301 309 312 322
248 252 260 265 269 219 269 270 253 246 252 259 264 261 267 257 239 194 193 193 193 197 195 196 194 193 190 188 181 177 152 173 193 195 193 187 195 218 228 241 257 279 279 284 295 296 307 300 311
260 270 256 265 274 266 134 285 274 288 261 229 265 274 261 230 216 193 190 193 196 198 194 195 195 195 192 187 183 189 196 192 196 185 169 177 212 230 239 252 266 270 275 279 287 297 293 296 296
253 311 254 257 257 279 260 269 266 201 260 240 244 257 270 211 197 199 189 195 197 192 195 193 196 196 190 187 190 193 203 197 160 167 191 215 221 228 243 259 273 279 278 277 280 280 273 276 276
105 251 244 229 260 251 250 242 287 204 205 232 251 259 231 185 187 194 188 189 194 187 193 193 194 194 191 191 195 198 195 189 183 187 205 216 220 233 242 248 255 266 272 272 280 279 273 270 271
203 211 261 242 223 264 267 257 262 280 225 238 258 263 150 175 182 184 184 188 193 191 191 192 199 197 192 196 197 198 198 194 195 194 204 213 223 232 235 239 254 266 272 279 279 277 277 276 276
198 210 221 269 270 285 53 264 259 233 238 242 248 250 180 192 194 192 190 192 194 190 193 199 204 200 193 193 196 194 194 193 192 200 203 210 221 238 251 266 272 269 271 277 279 279 280 283 279
160 207 282 276 140 278 261 261 251 168 195 220 215 203 224 217 206 201 201 197 195 193 197 201 203 203 196 193 190 190 189 189 192 196 193 207 220 229 250 260 267 269 273 277 282 281 281 280 278
238 84 193 197 270 264 279 281 271 249 229 217 233 236 252 221 212 207 204 199 201 200 201 202 201 204 197 193 192 187 184 188 187 185 194 199 209 214 226 243 254 266 272 277 279 279 277 279 278
181 221 216 295 233 256 277 265 78 101 103 140 215 225 244 227 207 209 211 206 206 201 198 206 204 200 198 193 189 185 182 183 182 184 194 202 202 212 230 242 257 264 271 275 275 276 278 278 281
260 230 216 220 230 228 249 272 121 233 131 156 180 205 245 239 231 225 211 200 205 205 202 203 201 201 198 190 187 185 176 171 177 187 191 191 203 213 225 239 253 261 264 265 270 274 275 277 277